Volver al catálogo

STARLINK-32529

ActivoComunicacionesVLEO
NORAD 62139·PAYLOAD·🇺🇸 United States

Lanzado Nov 30, 2024 desde Cape Canaveral Space Force Station

Loading…

Próximos Pases (próximas 24 horas)

TLE

ActualizadoSource: CelesTrak SupGP

Época: Sep 15, 2026, 03:11 UTC

1 62139C 24224A   26258.13312500  .00008894  00000+0  32219-3 0  2589
2 62139  43.0016 168.4731 0001353 280.3953 323.4888 15.27568077    14

Sigue STARLINK-32529 en tiempo real con AllMySat

Download on the App Store